Preview of NWS' New Version of Forecast
This preview is not operational and should not be used for support decisions.

Regional Weather Roundup (RWR)

Issued by Philadelphia/Mt Holly (PHI)

                            
000
ASUS41 KPHI 240512
RWRPHI

REGIONAL WEATHER ROUNDUP
NATIONAL WEATHER SERVICE MOUNT HOLLY NJ
100 AM EDT SUN MAR 24 2019

NOTE:  "FAIR" INDICATES FEW OR NO CLOUDS BELOW 12,000 FEET WITH NO
SIGNIFICANT WEATHER AND/OR OBSTRUCTIONS TO VISIBILITY.

 * = STATION DOES NOT REPORT PRECIPITATION (E.G. RAIN, SNOW, ETC.) 
        OR FOG.

NJZ015>026-240600-
SOUTHERN NEW JERSEY
  
CITY           SKY/WX    TMP DP  RH WIND       PRES   REMARKS
POMONA         FAIR      41  17  38 W6        30.20R                  
WILDWOOD*      FAIR      44  28  53 W10       30.23R                  
MILLVILLE      FAIR      33  21  61 W3        30.22R                  
MOUNT HOLLY    FAIR      42  12  29 W5        30.19R                  
TRENTON        FAIR      40  11  30 W5        30.17R                  

$$
NJZ001>014-240600-
NORTHERN NEW JERSEY
  
CITY           SKY/WX    TMP DP  RH WIND       PRES   REMARKS
SUSSEX         FAIR      37  12  35 W12       30.14R WCI  29          
ANDOVER*         N/A     37  10  32 VRB5      30.14R WCI  33          
MORRISTOWN     FAIR      36  14  41 CALM      30.15S                  
NEWARK         FAIR      41   9  26 W3        30.15S                  
TETERBORO      FAIR      39  13  34 NW7       30.14S WCI  34          
CALDWELL       FAIR      37  12  35 CALM      30.16R                  
SOMERVILLE     FAIR      34  14  43 CALM      30.15R                  
ALLAIRE*       FAIR      40  11  30 W13       30.16S WCI  32          
TOMS RIVER*    FAIR      35  13  40 W10       30.18R WCI  27          

$$
PAZ043-044-047-054-055-060>062-066>071-240600-
EASTERN PENNSYLVANIA
  
CITY           SKY/WX    TMP DP  RH WIND       PRES   REMARKS
PHILADELPHIA   FAIR      42  14  32 W8        30.21R                  
NORTH PHILA    FAIR      43  12  28 W9        30.20R                  
BLUE BELL*     FAIR      39  14  35 W3        30.20S                  
DOYLESTOWN     FAIR      38  10  31 W6        30.17R WCI  33          
QUAKERTOWN*    CLEAR     39  10  30 SW5       30.18R                  
PERKASIE*      FAIR      37  10  32 W7        30.18R WCI  32          
POTTSTOWN      FAIR      39  14  36 NW7       30.20R WCI  34          
LANCASTER      FAIR      38  18  44 W7        30.21R WCI  33          
COATESVILLE    FAIR      37  18  44 W12       30.20S WCI  30          
READING        FAIR      40  17  39 SW5       30.20R                  
ALLENTOWN      FAIR      40  11  30 W8        30.17R WCI  34          
MOUNT POCONO   FAIR      29  11  47 W14       30.09R WCI  18          
HAZLETON       FAIR      34   9  35 W10       30.17R WCI  26          
LEHIGHTON      FAIR      36  12  38 CALM      30.19R                  
WILKES BARRE   FAIR      30  14  51 CALM      30.16R                  

$$
DEZALL-MDZ008-012-015-019-020-240600-
DELAWARE AND EASTERN MARYLAND
  
CITY           SKY/WX    TMP DP  RH WIND       PRES   REMARKS
WILMINGTON     FAIR      40  16  37 W6        30.22R                  
GEORGETOWN     FAIR      43  21  41 CALM      30.24R                  
EASTON         FAIR      44  22  41 W5        30.29R                  
PATUXENT       FAIR      40  19  43 SW5       30.26R                  
OCEAN CITY     FAIR      41  23  48 NW3       30.24R                  
WALLOPS ISLAND FAIR      42  24  49 W7        30.26R                  
CAMBRIDGE      CLEAR     43  21  42 NW5       30.26R                  
SALISBURY      FAIR      41  23  48 W7        30.25R                  

$$
PAZ001-021-NYZ056-072-MDZ011-DCZ001-240600-
OTHER NEARBY LOCATIONS
  
CITY           SKY/WX    TMP DP  RH WIND       PRES   REMARKS
HARRISBURG     FAIR      40  17  39 NW10      30.21S WCI  33          
STATE COLLEGE  FAIR      34  13  41 SW8       30.21S WCI  28          
WILLIAMSPORT   FAIR      32  16  51 W8        30.19S WCI  25          
BINGHAMTON     FAIR      27  13  55 W9        30.11R WCI  18          
NEW YORK CITY  FAIR      41  10  28 W6        30.16S                  
BALTIMORE      FAIR      40  18  41 S5        30.24R                  
WASHINGTON DC  FAIR      44  25  47 S3        30.26S                  

$$